Location: Maiden
(35.5760°N, 81.2120°W)
Time: 22:05:53
(UTC-04:00)

SPOT 1/Viking Rocket - Pass Details

Date: 14 June 2018
Orbit: 778 x 794 km, 98.6° (Epoch: 17 August)

Event Time Altitude Azimuth Distance (km) Brightness Sun altitude
Exits shadow 23:38:46 37° 234° (SW) 1,203 4.4 -25.9°
Maximum altitude 23:39:43 40° 261° (W) 1,133 4.4 -26.0°
Drops below altitude 10° 23:44:33 10° 331° (NNW) 2,334 7.0 -26.5°
Sets 23:47:00 0° 339° (NNW) 3,266 8.1 -26.7°
